CW3699 Weather Reports


Display with metric or nautical units.
time (UTC)temp
F
wind
direction
speed
MPH
gust
MPH
rain 1hr
in
rain 24hr
in
rain mn
in
humidity
%
barometer
mb
20260905190915 75 59 0.0 2.0 0.00 0.01 0.01 62 1018.9
20260905190430 75 40 0.0 2.0 0.00 0.01 0.01 63 1018.9
20260905185916 74 43 1.0 2.0 0.00 0.01 0.01 66 1018.9
20260905185416 74 73 0.0 2.0 0.00 0.01 0.01 68 1019.0
20260905184915 74 16 1.0 2.0 0.00 0.01 0.01 66 1019.0
20260905184415 74 53 1.0 2.0 0.00 0.01 0.01 65 1019.1
20260905183915 74 18 1.0 2.0 0.00 0.01 0.01 68 1019.1
20260905182415 74 18 1.0 2.0 0.00 0.01 0.01 70 1019.1
20260905181916 73 28 0.0 2.0 0.00 0.01 0.01 70 1019.1
20260905181415 73 30 0.0 2.0 0.00 0.01 0.01 71 1019.2
20260905180415 72 23 0.0 2.0 0.00 0.01 0.01 73 1019.1
20260905175915 72 93 1.0 2.0 0.00 0.01 0.01 75 1019.2
20260905175415 72 45 1.0 2.0 0.00 0.01 0.01 76 1019.3
20260905174915 72 37 1.0 2.0 0.00 0.01 0.01 76 1019.2
20260905174431 72 50 0.0 2.0 0.00 0.01 0.01 78 1019.2
20260905173914 72 92 0.0 2.0 0.00 0.01 0.01 77 1019.3
20260905172915 73 59 0.0 2.0 0.00 0.01 0.01 77 1019.3
20260905172415 73 79 1.0 2.0 0.00 0.01 0.01 78 1019.4
20260905171915 72 84 1.0 2.0 0.00 0.01 0.01 80 1019.4
20260905171415 72 83 1.0 3.0 0.00 0.01 0.01 78 1019.3
20260905170914 72 59 1.0 2.0 0.00 0.01 0.01 77 1019.4
20260905170415 72 100 1.0 2.0 0.00 0.01 0.01 78 1019.4
20260905165914 72 48 1.0 2.0 0.00 0.01 0.01 79 1019.5
20260905165414 72 73 1.0 2.0 0.00 0.01 0.01 80 1019.5
20260905164915 72 127 1.0 3.0 0.00 0.01 0.01 79 1019.4
20260905164430 72 102 0.0 2.0 0.00 0.01 0.01 80 1019.6
20260905163929 72 49 1.0 2.0 0.00 0.01 0.01 80 1019.6
20260905162917 71 81 1.0 2.0 0.00 0.01 0.01 81 1019.5
20260905162415 71 39 1.0 3.0 0.00 0.01 0.01 82 1019.6
20260905161916 71 64 0.0 2.0 0.00 0.01 0.01 83 1019.5
20260905161415 70 113 1.0 2.0 0.00 0.01 0.01 84 1019.5
20260905160415 69 51 1.0 3.0 0.00 0.01 0.01 83 1019.5
20260905155915 69 49 1.0 2.0 0.00 0.01 0.01 83 1019.5
20260905154915 69 36 1.0 2.0 0.00 0.01 0.01 85 1019.4
20260905153915 68 44 1.0 2.0 0.00 0.01 0.01 86 1019.3
20260905153415 68 39 1.0 2.0 0.00 0.01 0.01 85 1019.3
20260905152916 68 61 1.0 2.0 0.00 0.01 0.01 86 1019.3
20260905152416 68 44 1.0 3.0 0.00 0.01 0.01 87 1019.2
20260905151916 68 51 1.0 3.0 0.00 0.01 0.01 87 1019.1
20260905151415 67 42 1.0 2.0 0.00 0.01 0.01 87 1019.1
20260905150915 67 50 1.0 3.0 0.00 0.01 0.01 88 1019.1
20260905150415 67 50 1.0 2.0 0.00 0.01 0.01 88 1019.0
20260905145915 67 38 1.0 2.0 0.00 0.01 0.01 88 1019.0
20260905144915 66 77 1.0 2.0 0.00 0.01 0.01 89 1018.8
20260905144416 66 47 1.0 3.0 0.00 0.01 0.01 90 1018.8
20260905143415 66 36 1.0 2.0 0.00 0.01 0.01 90 1018.7
20260905141415 65 39 1.0 2.0 0.00 0.01 0.01 92 1018.5
20260905140916 65 47 1.0 3.0 0.00 0.01 0.01 93 1018.5
20260905140417 65 37 1.0 3.0 0.00 0.01 0.01 93 1018.5
20260905135914 65 42 1.0 3.0 0.00 0.01 0.01 94 1018.5
20260905135415 65 138 1.0 3.0 0.00 0.01 0.01 94 1018.4
20260905134915 65 119 1.0 2.0 0.00 0.01 0.01 95 1018.5
20260905134414 65 96 1.0 2.0 0.00 0.01 0.01 95 1018.5
20260905133915 64 98 1.0 2.0 0.00 0.01 0.01 96 1018.5
20260905133414 64 72 1.0 2.0 0.00 0.01 0.01 96 1018.5
20260905132916 64 24 1.0 2.0 0.00 0.01 0.01 97 1018.5
20260905131915 64 95 1.0 2.0 0.00 0.01 0.01 97 1018.4
20260905131415 63 58 1.0 2.0 0.00 0.01 0.01 98 1018.4
20260905130915 63 48 1.0 2.0 0.00 0.01 0.01 98 1018.4
20260905130415 63 81 0.0 2.0 0.00 0.01 0.01 98 1018.4
20260905124915 63 62 0.0 2.0 0.00 0.01 0.01 98 1018.4
20260905124415 63 88 0.0 2.0 0.00 0.01 0.01 98 1018.4
20260905123414 63 100 0.0 2.0 0.00 0.01 0.01 98 1018.3
20260905122915 63 48 1.0 2.0 0.00 0.01 0.01 98 1018.2
20260905122414 62 91 0.0 2.0 0.00 0.01 0.01 98 1018.2
20260905121915 62 115 0.0 2.0 0.00 0.01 0.01 98 1018.1
20260905121416 62 69 1.0 2.0 0.00 0.01 0.01 98 1018.1
20260905120916 62 84 0.0 2.0 0.00 0.01 0.01 98 1018.2
20260905120429 62 106 0.0 2.0 0.00 0.01 0.01 98 1018.1
20260905115931 62 122 0.0 2.0 0.01 0.01 0.01 98 1018.0
20260905115436 61 94 0.0 1.0 0.01 0.01 0.01 98 1018.0
20260905114915 61 131 0.0 1.0 0.01 0.01 0.01 98 1017.9
20260905113929 61 99 0.0 2.0 0.01 0.01 0.01 98 1018.0
20260905113429 61 86 0.0 2.0 0.01 0.02 0.01 98 1018.0
20260905112914 61 113 0.0 2.0 0.01 0.02 0.01 98 1017.8
20260905112429 60 113 0.0 1.0 0.01 0.02 0.01 98 1017.8
20260905111915 60 87 0.0 1.0 0.01 0.02 0.01 98 1017.8
20260905111415 60 111 0.0 2.0 0.01 0.03 0.01 98 1017.8
20260905110915 60 130 0.0 2.0 0.01 0.04 0.01 98 1017.8
20260905110415 60 144 0.0 2.0 0.01 0.04 0.01 98 1017.8
20260905105915 59 143 0.0 1.0 0.00 0.03 0.00 98 1017.8
20260905105415 59 152 0.0 1.0 0.00 0.03 0.00 98 1017.7
20260905104915 59 143 0.0 1.0 0.00 0.03 0.00 97 1017.8
20260905104415 59 123 0.0 2.0 0.00 0.03 0.00 97 1017.8
20260905103918 59 137 0.0 2.0 0.00 0.03 0.00 97 1017.8
20260905102914 58 131 0.0 1.0 0.00 0.03 0.00 97 1017.6
20260905102417 58 129 0.0 1.0 0.00 0.03 0.00 97 1017.6
20260905101916 58 126 0.0 2.0 0.00 0.03 0.00 97 1017.6
20260905101415 58 90 0.0 1.0 0.00 0.03 0.00 97 1017.7
20260905100914 58 104 0.0 1.0 0.00 0.03 0.00 97 1017.6
20260905095914 58 115 0.0 1.0 0.00 0.03 0.00 97 1017.4
20260905095414 58 143 0.0 1.0 0.00 0.03 0.00 97 1017.5
20260905094429 58 142 0.0 1.0 0.00 0.03 0.00 97 1017.4
20260905093429 58 109 0.0 1.0 0.00 0.03 0.00 97 1017.5
20260905092428 58 121 0.0 1.0 0.00 0.03 0.00 97 1017.5
20260905091914 58 112 0.0 1.0 0.00 0.03 0.00 97 1017.5
20260905091414 58 142 0.0 1.0 0.00 0.03 0.00 97 1017.4
20260905090915 58 165 0.0 2.0 0.00 0.03 0.00 97 1017.4
20260905090414 58 181 0.0 1.0 0.00 0.03 0.00 97 1017.4
20260905085929 58 133 0.0 1.0 0.00 0.03 0.00 97 1017.4
20260905085415 58 154 0.0 1.0 0.00 0.03 0.00 97 1017.4
20260905084915 58 127 0.0 1.0 0.00 0.03 0.00 97 1017.4
20260905084415 58 140 0.0 1.0 0.00 0.03 0.00 97 1017.4
20260905083415 58 149 0.0 1.0 0.00 0.03 0.00 97 1017.3
20260905082915 58 156 0.0 1.0 0.00 0.03 0.00 97 1017.3
20260905082414 58 158 0.0 1.0 0.00 0.03 0.00 97 1017.3
20260905081915 58 110 0.0 1.0 0.00 0.03 0.00 97 1017.3
20260905081414 58 154 0.0 1.0 0.00 0.03 0.00 97 1017.3
20260905080915 58 126 0.0 1.0 0.00 0.03 0.00 97 1017.4
20260905080416 58 135 0.0 1.0 0.00 0.03 0.00 97 1017.3
20260905075415 58 173 0.0 1.0 0.00 0.03 0.00 96 1017.2
20260905074914 58 166 0.0 1.0 0.00 0.03 0.00 96 1017.2
20260905074414 58 159 0.0 1.0 0.00 0.03 0.00 96 1017.2
20260905073914 58 141 0.0 1.0 0.00 0.03 0.00 96 1017.1
20260905073414 58 161 0.0 1.0 0.00 0.03 0.00 96 1017.1
20260905072914 58 168 0.0 1.0 0.00 0.03 0.00 96 1017.0
20260905072416 58 156 0.0 1.0 0.00 0.03 0.00 96 1017.1
20260905071915 59 158 0.0 1.0 0.00 0.03 0.00 96 1017.1
20260905071416 59 167 0.0 1.0 0.00 0.03 0.00 96 1017.1
20260905070929 59 157 0.0 2.0 0.00 0.03 0.00 96 1017.0
20260905070429 59 173 0.0 1.0 0.00 0.03 0.00 96 1016.9
20260905065915 59 170 0.0 1.0 0.00 0.03 0.00 96 1017.0
20260905065416 59 172 0.0 1.0 0.00 0.03 0.00 96 1016.9
20260905064418 59 160 0.0 1.0 0.00 0.03 0.00 96 1017.0
20260905063915 60 152 0.0 1.0 0.00 0.03 0.00 96 1017.0
20260905063417 60 144 0.0 1.0 0.00 0.03 0.00 96 1017.0
20260905062414 60 165 0.0 1.0 0.00 0.03 0.00 96 1017.0
20260905061914 60 163 0.0 1.0 0.00 0.03 0.00 96 1017.1
20260905061414 60 173 0.0 1.0 0.00 0.03 0.00 96 1017.1
20260905060914 60 142 0.0 1.0 0.00 0.03 0.00 96 1017.2
20260905060415 61 140 0.0 1.0 0.00 0.03 0.00 96 1017.2
20260905055415 61 144 0.0 1.0 0.00 0.03 0.00 96 1017.2
20260905054915 61 145 0.0 1.0 0.00 0.03 0.00 96 1017.2
20260905054415 61 150 0.0 1.0 0.00 0.03 0.00 96 1017.2
20260905053920 61 156 0.0 1.0 0.00 0.03 0.00 96 1017.2
20260905052415 61 134 0.0 1.0 0.00 0.03 0.00 96 1017.1
20260905050916 62 147 0.0 1.0 0.00 0.03 0.00 96 1017.1
20260905050414 62 144 0.0 1.0 0.00 0.03 0.00 96 1017.1
20260905045915 62 114 0.0 1.0 0.00 0.03 0.00 96 1017.1
20260905045415 63 129 0.0 1.0 0.00 0.03 0.00 97 1017.0
20260905044915 63 142 0.0 1.0 0.00 0.03 0.00 97 1017.1
20260905044415 63 140 0.0 1.0 0.00 0.03 0.00 97 1017.1
20260905043915 63 146 0.0 1.0 0.00 0.03 0.00 97 1017.1
20260905043415 63 126 0.0 1.0 0.00 0.03 0.00 97 1017.1
20260905042915 63 124 0.0 1.0 0.00 0.03 0.00 97 1017.2
20260905042414 63 164 0.0 1.0 0.00 0.03 0.00 97 1017.2
20260905041414 63 145 0.0 2.0 0.00 0.03 0.00 97 1017.1
20260905040414 63 153 0.0 1.0 0.00 0.03 0.00 97 1017.1
20260905035917 63 147 0.0 1.0 0.00 0.03 0.03 97 1017.1
20260905035415 64 133 0.0 1.0 0.00 0.03 0.03 97 1017.1
20260905034431 64 146 0.0 2.0 0.00 0.03 0.03 96 1017.3
20260905033915 64 118 0.0 1.0 0.00 0.03 0.03 96 1017.3
20260905033416 64 125 0.0 1.0 0.00 0.03 0.03 96 1017.3
20260905032915 64 142 0.0 1.0 0.00 0.03 0.03 97 1017.3
20260905032416 64 146 0.0 1.0 0.00 0.03 0.03 97 1017.3
20260905031915 64 102 0.0 1.0 0.00 0.03 0.03 97 1017.3
20260905030914 64 135 0.0 1.0 0.00 0.03 0.03 97 1017.4
20260905030414 64 96 0.0 1.0 0.00 0.03 0.03 96 1017.3
20260905025916 64 98 0.0 1.0 0.00 0.03 0.03 96 1017.3
20260905025418 64 99 0.0 1.0 0.00 0.03 0.03 96 1017.3
20260905024415 64 144 0.0 1.0 0.00 0.03 0.03 96 1017.3
20260905023416 64 150 0.0 1.0 0.00 0.03 0.03 96 1017.3
20260905022415 64 115 0.0 1.0 0.00 0.03 0.03 96 1017.3
20260905020918 64 112 0.0 1.0 0.00 0.03 0.03 96 1017.3
20260905020415 64 134 0.0 1.0 0.00 0.03 0.03 96 1017.3
20260905015915 64 117 0.0 1.0 0.00 0.03 0.03 96 1017.3
20260905014915 65 113 0.0 1.0 0.00 0.03 0.03 96 1017.2
20260905014415 65 85 0.0 1.0 0.00 0.03 0.03 96 1017.2
20260905013415 65 121 0.0 1.0 0.00 0.03 0.03 95 1017.1
20260905012915 65 119 0.0 1.0 0.00 0.03 0.03 96 1017.1
20260905012414 65 137 1.0 2.0 0.00 0.03 0.03 95 1017.2
20260905011914 65 123 0.0 2.0 0.00 0.03 0.03 95 1017.1
20260905011416 65 155 1.0 2.0 0.00 0.03 0.03 95 1017.1
20260905010929 65 89 0.0 1.0 0.00 0.03 0.03 95 1017.0
20260905010415 66 130 0.0 1.0 0.00 0.03 0.03 95 1016.9
20260905005430 66 135 0.0 1.0 0.00 0.03 0.03 96 1017.0
20260905004916 66 97 0.0 1.0 0.00 0.03 0.03 95 1016.9
20260905004432 66 139 0.0 2.0 0.00 0.03 0.03 95 1016.9
20260905003930 66 107 0.0 1.0 0.00 0.03 0.03 95 1016.7
20260905003416 66 94 0.0 1.0 0.00 0.03 0.03 95 1016.7
20260905002928 66 139 0.0 2.0 0.00 0.03 0.03 95 1016.7
20260905002429 66 118 0.0 2.0 0.00 0.03 0.03 95 1016.8
20260905001915 66 135 0.0 1.0 0.00 0.03 0.03 95 1016.8
20260905000915 66 43 0.0 1.0 0.00 0.03 0.03 95 1016.6
20260905000417 66 134 0.0 1.0 0.00 0.03 0.03 95 1016.7
20260904235915 66 108 0.0 1.0 0.00 0.03 0.03 94 1016.6
20260904235415 66 88 0.0 1.0 0.00 0.03 0.03 94 1016.5
20260904234414 66 116 0.0 1.0 0.00 0.03 0.03 94 1016.4
20260904233915 67 110 0.0 2.0 0.00 0.03 0.03 94 1016.5
20260904233415 67 59 0.0 2.0 0.00 0.03 0.03 94 1016.4
20260904232914 67 67 0.0 2.0 0.00 0.03 0.03 93 1016.4
20260904232414 67 109 0.0 1.0 0.00 0.03 0.03 93 1016.4
20260904231914 67 69 0.0 1.0 0.00 0.03 0.03 93 1016.5
20260904230914 67 66 0.0 2.0 0.00 0.03 0.03 93 1016.4
20260904230415 67 86 0.0 1.0 0.00 0.03 0.03 92 1016.4
20260904225915 67 63 0.0 2.0 0.00 0.03 0.03 93 1016.3
20260904224415 67 115 0.0 1.0 0.00 0.03 0.03 92 1016.2
20260904223929 67 76 0.0 2.0 0.00 0.03 0.03 93 1016.2
20260904223413 67 69 0.0 2.0 0.00 0.03 0.03 92 1016.2
20260904222429 67 91 0.0 1.0 0.00 0.03 0.03 92 1016.2
20260904221414 67 91 0.0 2.0 0.00 0.03 0.03 92 1016.2
20260904220914 67 87 0.0 2.0 0.00 0.03 0.03 91 1016.1
20260904220414 68 79 1.0 2.0 0.00 0.03 0.03 91 1016.0
20260904215414 67 50 0.0 2.0 0.00 0.03 0.03 91 1016.0
20260904214914 67 83 0.0 2.0 0.00 0.03 0.03 91 1015.9
20260904214414 67 120 0.0 2.0 0.00 0.03 0.03 91 1016.1
20260904211916 67 49 1.0 2.0 0.00 0.03 0.03 91 1016.1
20260904211416 67 79 0.0 2.0 0.00 0.03 0.03 92 1016.2
20260904210914 67 63 0.0 2.0 0.00 0.03 0.03 91 1016.1
20260904210416 67 72 0.0 1.0 0.00 0.03 0.03 91 1016.2
20260904205915 67 79 0.0 2.0 0.00 0.03 0.03 91 1016.2
20260904205414 67 82 0.0 2.0 0.00 0.03 0.03 91 1016.2
20260904204929 68 83 0.0 2.0 0.00 0.03 0.03 91 1016.0
20260904203916 68 86 0.0 2.0 0.00 0.03 0.03 91 1016.2
20260904202416 68 61 1.0 2.0 0.00 0.03 0.03 91 1016.2
20260904201919 68 64 1.0 3.0 0.00 0.03 0.03 90 1016.2
20260904201414 68 94 1.0 2.0 0.00 0.03 0.03 90 1016.1
20260904200914 68 77 1.0 2.0 0.00 0.03 0.03 90 1016.0
20260904200414 68 59 1.0 2.0 0.00 0.03 0.03 90 1016.0
20260904195915 68 56 1.0 3.0 0.00 0.03 0.03 90 1016.1
20260904195414 69 42 1.0 2.0 0.00 0.03 0.03 90 1016.1
20260904194914 68 75 1.0 2.0 0.00 0.03 0.03 90 1016.2
20260904194415 68 64 1.0 3.0 0.00 0.03 0.03 91 1016.2
20260904193914 68 138 1.0 2.0 0.00 0.03 0.03 91 1016.3
20260904192414 68 126 1.0 3.0 0.00 0.03 0.03 90 1016.3
20260904191914 68 39 1.0 3.0 0.00 0.03 0.03 91 1016.3